Weather Roundup
Issued by NWS

Home | Current Version | Previous Version | Graphics & Text | Print | Product List | Glossary Off
Versions: 1 2 3 4 5 6 7 8 9 10 11 12 13 14 15 16 17 18 19 20 21 22 23 24 25 26 27 28 29 30 31 32 33 34 35 36 37 38 39 40 41 42 43 44 45 46 47 48 49 50

000
NZUS93 KARX 182359
HRRWXR

CURRENT HOURLY OBSERVATIONS ACROSS
MUCH OF THE UPPER MISSISSIPPI VALLEY
NATIONAL WEATHER SERVICE LA CROSSE WI
700 PM CDT FRI APR 18 2014


...SOUTHEAST MINNESOTA...


CITY           SKY/WX    TMP DP  RH WIND       PRES   REMARKS
ROCHESTER      PTCLDY    52  31  44 SE15      30.24S
ROCHESTER/MAYO FAIR      52  25  35 E9        30.24F
WINONA         CLOUDY    54  28  37 SE7       30.28F
AUSTIN         CLEAR     55  30  38 SE12      30.22F
ALBERT LEA     CLEAR     55  30  38 SE13G23   30.20F
DODGE CENTER   PTCLDY    55  32  41 SE14      30.23F
PRESTON        CLEAR     54  29  39 E9        30.26S
OWATONNA       CLEAR     54  34  47 SE15G23   30.21F
FARIBAULT      PTCLDY    55  28  35 E9        30.22F
$$

...ELSEWHERE IN MINNESOTA...


CITY           SKY/WX    TMP DP  RH WIND       PRES   REMARKS
MINNEAPOLIS    CLOUDY    51  26  37 E20       30.23F
INTNL FALLS    SUNNY     43  12  28 SE12      30.24F
DULUTH         PTCLDY    36  19  50 E15       30.30F WCI  27
RED WING       CLOUDY    52  28  40 SE8       30.24F
REDWOOD FALLS  SUNNY     56  36  47 SE24G33   30.08F
MANKATO        MOSUNNY   54  34  47 SE18      30.18F
WORTHINGTON    SUNNY     59  30  33 SE21G30   30.07F
FAIRMONT       SUNNY     57  30  35 SE18G30   30.15F
$$

...SOUTHWEST WISCONSIN...


CITY           SKY/WX    TMP DP  RH WIND       PRES   REMARKS
LA CROSSE      MOCLDY    55  25  31 E5        30.27F
PRAIRIE DU CHI NOT AVBL
BOSCOBEL       CLEAR     58  24  27 E6        30.29S
LONE ROCK      NOT AVBL
PLATTEVILLE    PTCLDY    57  28  33 E5        30.29S
FORT MC COY    PTCLDY    53  23  31 E8        30.31S
VIROQUA        FAIR      53  28  38 E7        30.28F
WIS DELLS      CLEAR     53  24  31 E5        30.31S
$$

...ELSEWHERE IN WISCONSIN...


CITY           SKY/WX    TMP DP  RH WIND       PRES   REMARKS
MILWAUKEE      PTCLDY    36  27  69 NE13      30.39S WCI  27
MADISON        PTCLDY    52  29  41 E7        30.31F
GREEN BAY      CLEAR     44  26  49 NE13      30.38R
EAU CLAIRE     NOT AVBL
BLACK RVR FLS  FAIR      54  21  27 NE6       30.29S
MEDFORD        CLEAR     45  20  37 NE3       30.32S
WAUSAU         CLEAR     47  19  33 E6        30.32S
WIS RAPIDS     CLEAR     51  20  29 NE6       30.34R
MARSHFIELD     CLEAR     49  24  37 NE5       30.31F
RICE LAKE      MOCLDY    46  21  36 E7        30.31F
$$

...NORTHEAST IOWA...


CITY           SKY/WX    TMP DP  RH WIND       PRES   REMARKS
WATERLOO       CLEAR     58  26  29 SE10      30.22F
DUBUQUE        CLEAR     56  28  34 E6        30.27F
DECORAH        CLEAR     55  28  35 E13       30.25F
MASON CITY     CLEAR     56  30  37 SE15      30.21F
CHARLES CITY   CLEAR     57  30  35 SE15      30.24S
OELWEIN        CLEAR    N/A N/A N/A SE12      30.25F
$$

...ELSEWHERE IN IOWA...


CITY           SKY/WX    TMP DP  RH WIND       PRES   REMARKS
DES MOINES     PTCLDY    64  33  31 SE13      30.18F
IOWA CITY      CLEAR     60  29  30 SE8       30.26S
FORT DODGE     SUNNY     61  30  31 SE14G20   30.16F
MARSHALLTOWN   CLEAR     59  28  30 SE10      30.20F
CEDAR RAPIDS   CLEAR     60  26  27 SE8       30.23F
$$

...NORTHERN ILLINOIS...


CITY           SKY/WX    TMP DP  RH WIND       PRES   REMARKS
CHICAGO-OHARE  CLEAR     42  29  59 NE15      30.33F
DUPAGE         CLEAR     46  33  60 NE14      30.31R
CHICAGO-MIDWAY CLEAR     43  33  68 NE10      30.33F
MOLINE         CLEAR     60  29  30 NE7       30.24F
ROCKFORD       CLEAR     57  29  34 NE9       30.29F
STERLING       CLEAR     59  34  38 N5        30.26F
PEORIA         CLEAR     64  25  22 NE6       30.24F
$$

NOTE: "FAIR" INDICATES FEW OR NO CLOUDS BELOW 12,000 FEET WITH NO
SIGNIFICANT WEATHER AND/OR OBSTRUCTIONS TO VISIBILITY. WIND
SPEEDS ARE IN MILES-PER-HOUR.



USA.gov is the U.S. government's official web portal to all federal, state and local government web resources and services.